Regional Weather Roundup
Issued by NWS Cleveland, OH

Home | Current Version | Previous Version | Graphics & Text | Print | Product List | Glossary On
Versions: 1 2 3 4 5 6 7 8 9 10 11 12 13 14 15 16 17 18 19 20 21 22 23 24 25 26 27 28 29 30 31 32 33 34 35 36 37 38 39 40 41 42 43 44 45 46 47 48 49 50
000
ASUS41 KCLE 251200
RWRCLE
OHIO REGIONAL WEATHER ROUNDUP
NATIONAL WEATHER SERVICE WILMINGTON, OH
800 AM EDT SAT OCT 25 2014

NOTE: "FAIR" INDICATES FEW OR NO CLOUDS BELOW 12,000 FEET WITH NO
SIGNIFICANT WEATHER AND/OR OBSTRUCTIONS TO VISIBILITY.

OHZ001>008-015>018-024>027-034-035-043-044-251300-
   NORTHWEST OHIO

CITY           SKY/WX    TMP DP  RH WIND       PRES   REMARKS
DEFIANCE       CLOUDY    56  51  84 SW7       29.91S
FINDLAY        CLOUDY    55  50  83 SW10      29.90F
TOLEDO EXPRESS CLOUDY    52  49  89 SW8       29.88F
TOLEDO METCALF CLOUDY    52  48  86 SW8       29.89F
LIMA           CLOUDY    54  49  83 SW10      29.93S
$$

OHZ009>014-019>023-028>033-038-089-251300-
   NORTHEAST OHIO

CITY           SKY/WX    TMP DP  RH WIND       PRES   REMARKS
CLE-HOPKINS    PTCLDY    51  46  83 SW7       29.93R
CLE-LAKEFRONT  MOCLDY    55  47  74 SW13      29.89S
CUY CO. ARPT   MOCLDY    54  50  87 SW9       29.90F
LORAIN-ELYRIA  MOCLDY    48  46  93 SW6       29.91S
ASHTABULA      CLOUDY    49  42  77 S6        29.90F
AKRON-CANTON   MOCLDY    44  39  82 SW3       29.94S
WOOSTER        NOT AVBL
MANSFIELD      CLEAR     53  49  86 SW10      29.93S
YOUNGSTOWN     MOCLDY    47  40  76 SW6       29.92F
$$

OHZ042-051>053-060>062-070>072-077>081-251300-
  SOUTHWEST OHIO

CITY           SKY/WX    TMP DP  RH WIND       PRES   REMARKS
CINC-COVINGTON MOCLDY    50  45  83 S8        29.99F
CINC-LUNKEN    MOCLDY    42  42 100 CALM      30.01F
HAMILTON       CLOUDY    47  46  97 E3        30.00F FOG
DAYTON         NOT AVBL
WRIGHT-PAT AFB CLOUDY    46  44  92 SE2       29.97F
DAYTON GENERAL CLOUDY    49  47  93 S6        29.97F
WILMINGTON     CLEAR     45  42  89 SW6       29.99F
$$

OHZ036-037-039>041-045>050-054>059-063>069-073>076-082>088-251300-
  CENTRAL AND SOUTHEAST OHIO

CITY           SKY/WX    TMP DP  RH WIND       PRES   REMARKS
COLUMBUS       PTCLDY    45  39  79 SE5       29.96F
OSU AIRPORT    CLEAR     44  40  85 S5        29.96F
BOLTON FIELD   CLEAR     45  45 100 SW6       29.97F
RICKENBACK AFB NOT AVBL
NEWARK         CLEAR     40  37  89 CALM      29.96F
MARION         CLOUDY    49  45  86 S7        29.94S FOG
LANCASTER      CLEAR     48  42  80 SW6       29.98F
ZANESVILLE     PTCLDY    38  35  89 S3        29.97F
NEW PHILLY     PTCLDY    41  39  93 SE3       29.97F
$$



USA.gov is the U.S. government's official web portal to all federal, state and local government web resources and services.